Location: Skalnate Pleso
(49.1889°N, 20.2450°E)
Time: 03:42:17
(UTC+01:00)

SL-16 R/B - Pass Details

Date: 19 November 2019
Orbit: 842 x 846 km, 71.0° (Epoch: 09 December)

Event Time Altitude Azimuth Distance (km) Brightness Sun altitude
Exits shadow 03:44:14 55° 32° (NNE) 1,013 2.6 -30.8°
Maximum altitude 03:44:47 58° 56° (ENE) 987 2.7 -30.7°
Drops below altitude 10° 03:50:22 10° 136° (SE) 2,464 5.1 -29.8°
Sets 03:52:51 0° 140° (SE) 3,395 5.8 -29.4°
